Location: Waco, TX
(31.5480°N, 97.1670°W)
Time: 23:22:06
(UTC-05:00)

ISS - Pass Details

Date: 13 October 2018
Orbit: 403 x 408 km, 51.6° (Epoch: 21 October)

Event Time Altitude Azimuth Distance (km) Brightness Sun altitude
Rises 19:06:03 0° 324° (NW) 2,332 0.4 -2.4°
Reaches altitude 10° 19:08:17 10° 335° (NNW) 1,469 -0.7 -2.8°
Maximum altitude 19:11:16 31° 40° (NE) 736 -2.9 -3.5°
Drops below altitude 10° 19:14:15 10° 105° (ESE) 1,461 -1.6 -4.1°
Enters shadow 19:15:58 - 114° (ESE) 2,122 -0.7 -4.4°
Sets 19:16:28 0° 116° (ESE) 2,318 - -4.6°
